Waarnemingen

Advertentie
Mijn weer
Rotterdam Zestienhoven, Nederland (6344): temperatuur & dauwpunt: 17.10.2017 02:00:00 - 23.10.2017 02:00:00 (CEST)Rotterdam Zestienhoven, Nederland (6344): temperatuur 5cm: 17.10.2017 02:00:00 - 23.10.2017 02:00:00 (CEST)Rotterdam Zestienhoven, Nederland (6344): windsnelheid & windstoten: 17.10.2017 02:00:00 - 23.10.2017 02:00:00 (CEST)Rotterdam Zestienhoven, Nederland (6344): windrichting: 17.10.2017 02:00:00 - 23.10.2017 02:00:00 (CEST)Rotterdam Zestienhoven, Nederland (6344): luchtdruk: 17.10.2017 02:00:00 - 23.10.2017 02:00:00 (CEST)Rotterdam Zestienhoven, Nederland (6344): zicht: 17.10.2017 02:00:00 - 23.10.2017 02:00:00 (CEST)Rotterdam Zestienhoven, Nederland (6344): neerslag: 17.10.2017 02:00:00 - 23.10.2017 02:00:00 (CEST)
Datum & Tijd tt [°C] td [°C] tt 5cm [°C] ff [km/u] ff [kn] fx [km/u] fx [kn] dd ppp [hPa] vv [km] rr [mm]
23.10.2017 02:00:00 11,9 7,9 11,1 18 10 32 18 W 1014,8 10 0,0
23.10.2017 01:00:00 11,8 8,3 10,8 16 9 32 18 W 1014,7 10 0,0
23.10.2017 00:00:00 11,1 8,8 10,4 15 8 47 25 W 1014,5 10 0,0
22.10.2017 23:00:00 11,6 8,5 10,8 16 9 32 18 W 1014,0 10 0,0
22.10.2017 22:00:00 10,2 9,4 9,9 16 9 32 18 WZW 1013,4 5 1,2
22.10.2017 21:00:00 10,6 8,6 10,1 22 12 36 19 W 1013,2 10 0,4
22.10.2017 20:00:00 10,4 8,7 9,9 18 10 32 18 W 1013,1 10 0,5
22.10.2017 19:00:00 10,1 7,6 9,6 16 9 40 21 W 1012,5 10 0,5
22.10.2017 18:00:00 10,1 7,6 9,7 22 12 40 21 W 1011,9 6 1,4
22.10.2017 17:00:00 10,7 9,1 10,4 21 11 40 21 W 1011,6 10 0,7
22.10.2017 16:00:00 11,6 8,6 11,5 21 11 43 23 WZW 1010,7 10 0,1
22.10.2017 15:00:00 11,2 9,0 11,1 22 12 43 23 W 1010,3 10 0,7
22.10.2017 14:00:00 11,6 8,8 11,1 24 13 40 21 WZW 1010,0 10 0,1
22.10.2017 13:00:00 11,9 8,7 11,5 16 9 47 25 WZW 1009,5 10 0,6
22.10.2017 12:00:00 12,6 7,6 12,3 21 11 47 25 W 1009,0 10 0,0
22.10.2017 11:00:00 12,3 7,5 11,7 24 13 43 23 W 1008,6 10 0,0
22.10.2017 10:00:00 12,1 8,8 11,3 22 12 40 21 W 1008,0 10 0,2
22.10.2017 09:00:00 12,2 9,2 11,2 15 8 29 16 W 1007,1 10 0,0
22.10.2017 08:00:00 11,7 10,9 11,3 16 9 40 21 WZW 1006,3 10 3,9
22.10.2017 07:00:00 11,5 10,6 11,0 26 14 43 23 ZZW 1005,8 10 2,0
22.10.2017 06:00:00 11,3 10,3 10,8 26 14 43 23 ZZW 1005,2 10 1,9
22.10.2017 05:00:00 10,8 9,9 10,3 24 13 50 27 ZZW 1005,1 10 1,3
22.10.2017 04:00:00 10,2 9,0 9,9 31 17 54 29 Z 1004,9 10 0,2
22.10.2017 03:00:00 10,4 8,4 10,0 31 17 54 29 Z 1005,6 10 1,1
22.10.2017 02:00:00 11,4 7,5 10,6 31 17 54 29 Z 1005,6 10 0,0
22.10.2017 01:00:00 11,4 7,3 10,4 31 17 50 27 Z 1006,3 10 0,0
22.10.2017 00:00:00 12,0 7,7 10,7 28 15 47 25 Z 1006,7 10 0,0
21.10.2017 23:00:00 11,9 8,3 10,8 26 14 47 25 ZZW 1007,2 10 0,0
21.10.2017 22:00:00 12,6 7,6 11,1 26 14 47 25 ZZW 1007,4 10 0,0
21.10.2017 21:00:00 13,0 8,1 11,6 34 18 54 29 ZW 1007,6 10 0,0
21.10.2017 20:00:00 12,9 8,2 11,3 31 17 47 25 ZZW 1007,9 10 0,0
21.10.2017 19:00:00 12,6 9,8 11,4 26 14 50 27 ZW 1008,0 10 0,6
21.10.2017 18:00:00 13,1 8,0 12,7 29 16 43 23 ZW 1008,0 10 0,0
21.10.2017 17:00:00 16,0 9,0 15,2 34 18 54 29 ZZW 1007,6 10 0,0
21.10.2017 16:00:00 16,4 9,3 16,4 37 20 58 31 ZZW 1007,5 10 0,0
21.10.2017 15:00:00 17,2 10,2 16,3 37 20 61 33 ZZW 1007,7 10 0,0
21.10.2017 14:00:00 16,3 10,5 16,4 34 18 50 27 ZZW 1007,8 10 0,0
21.10.2017 13:00:00 16,3 12,2 16,0 31 17 50 27 ZW 1007,9 10 0,0
21.10.2017 12:00:00 15,6 12,5 15,6 28 15 50 27 ZZW 1008,0 10 0,3
21.10.2017 11:00:00 14,7 12,9 14,3 26 14 40 21 ZZW 1007,8 10 0,0
21.10.2017 10:00:00 13,7 12,5 13,3 22 12 47 25 Z 1007,5 10 0,0
21.10.2017 09:00:00 12,9 12,0 12,2 24 13 40 21 Z 1007,2 10 1,3
21.10.2017 08:00:00 11,9 10,1 11,5 21 11 - - Z 1007,3 10 0,3
21.10.2017 07:00:00 11,8 8,9 11,4 22 12 32 18 Z 1007,6 10 0,0
21.10.2017 06:00:00 11,5 8,3 10,9 22 12 32 18 ZZO 1008,2 10 0,0
21.10.2017 05:00:00 11,7 8,3 10,8 21 11 - - ZZO 1008,6 10 0,0
21.10.2017 04:00:00 11,8 8,5 11,1 15 8 25 14 ZZO 1009,5 10 0,0
21.10.2017 03:00:00 12,2 8,5 11,5 16 9 25 14 Z 1010,2 10 0,0
21.10.2017 02:00:00 12,1 8,9 11,4 18 10 - - Z 1010,7 10 0,0
21.10.2017 01:00:00 11,8 9,0 10,7 15 8 22 12 Z 1011,0 10 0,0
21.10.2017 00:00:00 12,2 9,2 11,2 16 9 29 16 ZZW 1011,3 10 0,0
20.10.2017 23:00:00 12,6 8,7 11,1 21 11 - - ZW 1011,3 10 0,0
20.10.2017 22:00:00 12,9 8,2 11,8 28 15 54 29 WZW 1011,2 10 0,0
20.10.2017 21:00:00 13,7 9,6 13,0 26 14 50 27 ZW 1010,7 10 0,0
20.10.2017 20:00:00 13,9 9,0 12,9 39 21 58 31 ZW 1009,9 10 0,0
20.10.2017 19:00:00 13,4 9,9 12,7 34 18 58 31 ZW 1009,3 10 0,0
20.10.2017 18:00:00 13,4 10,9 12,7 35 19 58 31 ZW 1008,6 10 0,0
20.10.2017 17:00:00 13,1 11,9 12,7 34 18 50 27 ZW 1007,9 10 0,4
20.10.2017 16:00:00 13,1 12,0 12,8 31 17 54 29 ZW 1006,7 10 1,0
20.10.2017 15:00:00 13,1 12,0 12,9 37 20 58 31 ZZW 1006,7 10 0,8
20.10.2017 14:00:00 12,9 11,2 12,9 39 21 65 35 ZZW 1005,9 10 0,1
20.10.2017 13:00:00 12,8 11,0 12,6 34 18 54 29 ZZW 1006,0 10 0,4
20.10.2017 12:00:00 13,7 10,0 13,2 34 18 58 31 ZZW 1005,5 10 0,0
20.10.2017 11:00:00 13,8 10,5 13,8 31 17 58 31 ZZW 1005,3 10 0,0
20.10.2017 10:00:00 14,0 10,7 13,8 31 17 50 27 ZZW 1005,1 10 0,0
20.10.2017 09:00:00 13,6 11,6 12,6 26 14 43 23 ZZW 1004,5 10 0,0
20.10.2017 08:00:00 13,2 11,5 12,1 24 13 50 27 ZZW 1004,1 10 4,0
20.10.2017 07:00:00 14,8 13,1 14,4 21 11 36 19 Z 1003,3 10 0,5
20.10.2017 06:00:00 16,0 12,3 14,9 22 12 36 19 Z 1003,2 10 0,0
20.10.2017 05:00:00 16,0 12,4 14,8 21 11 32 18 ZZO 1004,2 10 0,0
20.10.2017 04:00:00 16,0 12,6 14,7 18 10 25 14 ZZO 1004,5 10 0,0
20.10.2017 03:00:00 16,5 13,1 15,0 16 9 25 14 ZZO 1005,2 10 0,0
20.10.2017 02:00:00 16,9 13,8 15,7 18 10 29 16 Z 1005,6 10 0,0
20.10.2017 01:00:00 17,2 14,7 16,2 16 9 47 25 Z 1005,7 10 0,2
20.10.2017 00:00:00 17,1 14,7 16,3 21 11 40 21 ZZO 1005,9 10 0,4
19.10.2017 23:00:00 18,1 13,7 16,6 15 8 22 12 ZZO 1006,1 10 0,0
19.10.2017 22:00:00 18,2 13,7 16,7 15 8 25 14 ZZO 1006,0 10 0,0
19.10.2017 21:00:00 18,6 14,0 16,8 13 7 22 12 ZZO 1006,4 10 0,0
19.10.2017 20:00:00 18,8 13,9 17,1 15 8 25 14 ZZO 1006,7 10 0,0
19.10.2017 19:00:00 18,7 13,7 16,7 13 7 29 16 ZZO 1006,9 10 0,0
19.10.2017 18:00:00 19,6 14,0 18,4 18 10 40 21 ZZO 1006,7 10 0,0
19.10.2017 17:00:00 20,8 13,7 20,2 16 9 32 18 ZO 1006,5 10 0,0
19.10.2017 16:00:00 20,7 13,4 20,5 21 11 29 16 ZO 1007,0 10 0,0
19.10.2017 15:00:00 19,5 13,4 18,9 16 9 29 16 ZO 1007,5 10 0,0
19.10.2017 14:00:00 19,5 12,7 19,1 15 8 32 18 ZO 1008,3 10 0,0
19.10.2017 13:00:00 20,0 13,0 19,9 18 10 29 16 ZZO 1009,0 10 0,0
19.10.2017 12:00:00 18,7 12,6 18,1 15 8 29 16 ZO 1009,5 10 0,0
19.10.2017 11:00:00 17,3 12,0 16,1 5 3 22 12 ZZO 1010,1 10 0,0
19.10.2017 10:00:00 14,9 13,0 14,3 8 4 18 10 ZZO 1010,3 10 0,0
19.10.2017 09:00:00 13,7 12,6 12,5 5 3 11 6 ZO 1010,1 8 0,0
19.10.2017 08:00:00 12,9 12,6 11,6 5 3 11 6 OZO 1010,0 6 0,0
19.10.2017 07:00:00 11,8 11,8 8,5 4 2 7 4 ZO 1010,4 4,7 0,0
19.10.2017 06:00:00 12,0 12,0 8,2 4 2 7 4 ZO 1010,6 5 0,0
19.10.2017 05:00:00 12,4 12,1 8,3 5 3 11 6 ZO 1011,0 7 0,0
19.10.2017 04:00:00 13,0 12,7 8,8 9 5 14 8 Z 1011,4 6 0,0
19.10.2017 03:00:00 13,2 13,1 8,8 8 4 11 6 ZZO 1011,3 6 0,0
19.10.2017 02:00:00 14,0 14,0 9,2 4 2 11 6 - 1011,4 5 0,0
19.10.2017 01:00:00 13,8 13,7 10,3 4 2 4 2 ZZO 1011,7 1,1 0,0
19.10.2017 00:00:00 14,6 14,0 13,3 4 2 7 4 ZO 1011,6 3,9 0,0
18.10.2017 23:00:00 15,0 13,7 14,1 2 1 7 4 - 1011,8 4,6 0,0
18.10.2017 22:00:00 14,9 13,7 14,0 5 3 11 6 OZO 1011,9 4,4 0,0
18.10.2017 21:00:00 14,5 13,4 12,7 5 3 7 4 O 1012,0 5 0,0
18.10.2017 20:00:00 14,3 13,5 11,4 4 2 11 6 O 1012,1 4,5 0,0
18.10.2017 19:00:00 15,2 13,8 13,5 11 6 14 8 O 1011,9 6 0,0
18.10.2017 18:00:00 16,9 13,4 16,1 8 4 14 8 O 1011,9 0,9 0,0
18.10.2017 17:00:00 17,2 13,6 16,7 9 5 18 10 O 1011,7 0,7 0,0
18.10.2017 16:00:00 17,4 13,5 17,7 9 5 14 8 O 1012,0 6 0,0
18.10.2017 15:00:00 17,6 13,5 19,0 8 4 14 8 O 1012,1 9 0,0
18.10.2017 14:00:00 17,3 13,3 19,1 4 2 11 6 - 1012,7 9 0,0
18.10.2017 13:00:00 15,9 12,9 17,5 8 4 - - O 1013,0 7 -
18.10.2017 12:00:00 15,2 12,9 16,5 9 5 14 8 O 1013,1 7 0,0
18.10.2017 11:00:00 13,8 11,8 14,2 11 6 - - O 1013,5 7 0,0
18.10.2017 10:00:00 13,0 11,0 12,0 9 5 - - O 1013,7 10 -
18.10.2017 09:00:00 11,4 10,5 10,3 9 5 - - ONO 1013,7 10 0,0
18.10.2017 08:00:00 11,1 10,1 10,0 11 6 - - NO 1013,8 10 0,0
18.10.2017 07:00:00 11,3 10,0 9,8 8 4 14 8 O 1014,1 10 0,0
18.10.2017 06:00:00 11,9 10,5 10,6 9 5 18 10 ONO 1014,4 10 0,0
18.10.2017 05:00:00 12,7 11,2 12,0 11 6 18 10 ONO 1015,1 10 0,0
18.10.2017 04:00:00 12,5 11,6 12,1 8 4 11 6 NO 1015,9 10 0,0
18.10.2017 03:00:00 12,3 11,6 11,9 8 4 11 6 NO 1016,2 10 0,0
18.10.2017 02:00:00 11,6 10,8 11,4 2 1 7 4 NO 1016,6 10 0,0
18.10.2017 01:00:00 10,6 10,4 10,4 0 0 4 2 N 1017,0 10 0,0
18.10.2017 00:00:00 9,4 9,1 8,7 2 1 7 4 ZZO 1017,1 10 0,0
17.10.2017 23:00:00 10,1 9,8 8,0 2 1 7 4 - 1017,8 10 0,0
17.10.2017 22:00:00 10,2 9,2 7,9 5 3 7 4 ZZO 1017,9 10 0,0
17.10.2017 21:00:00 11,0 9,5 8,2 5 3 11 6 Z 1018,3 10 0,0
17.10.2017 20:00:00 11,6 9,5 9,3 8 4 11 6 Z 1018,6 10 0,0
17.10.2017 19:00:00 12,1 8,3 9,9 5 3 11 6 WZW 1018,6 10 0,0
17.10.2017 18:00:00 13,5 9,0 12,5 9 5 14 8 WZW 1018,8 10 0,0
17.10.2017 17:00:00 14,5 10,5 13,8 11 6 22 12 WZW 1019,4 10 0,0
17.10.2017 16:00:00 14,8 10,0 14,2 16 9 25 14 WZW 1019,9 10 0,0
17.10.2017 15:00:00 14,6 11,0 14,2 16 9 25 14 ZW 1020,4 10 0,0
17.10.2017 14:00:00 14,8 11,4 14,5 18 10 32 18 ZW 1021,1 10 0,0
17.10.2017 13:00:00 14,7 11,6 14,5 15 8 25 14 ZW 1021,4 10 0,0
17.10.2017 12:00:00 14,8 11,7 14,6 16 9 25 14 ZW 1021,4 10 0,0
17.10.2017 11:00:00 14,6 11,6 14,0 15 8 25 14 ZW 1021,3 10 0,0
17.10.2017 10:00:00 14,4 11,6 13,6 13 7 25 14 ZZW 1021,3 10 0,0
17.10.2017 09:00:00 13,9 11,0 12,2 15 8 25 14 ZW 1021,0 10 0,0
17.10.2017 08:00:00 13,3 10,6 11,6 15 8 25 14 ZW 1020,8 10 0,0
17.10.2017 07:00:00 13,3 10,4 11,7 15 8 29 16 ZW 1020,7 10 0,0
17.10.2017 06:00:00 14,2 10,7 12,3 18 10 32 18 ZW 1020,5 10 0,0
17.10.2017 05:00:00 14,4 10,5 13,0 21 11 32 18 WZW 1020,4 10 0,0
17.10.2017 04:00:00 15,2 11,0 13,6 21 11 40 21 WZW 1020,3 10 0,0
17.10.2017 03:00:00 15,9 10,8 15,0 22 12 36 19 WZW 1020,5 10 0,0
17.10.2017 02:00:00 15,7 11,2 14,3 18 10 36 19 ZW 1020,1 10 0,0

tt = temperatuur
td = dauwpunt
tt 5cm = temperatuur 5cm
ff = windsnelheid
fx = windstoten
dd = windrichting
ppp = luchtdruk
vv = zicht
rr = neerslag

Weerstations in de omgeving